CZ-3B DEB, 41119

Orbit data source: Space-Track

CZ-3B DEB, 41119 is space debris in HEO originally from a launch on Mon, 19 Dec 2011 UTC launched from the Xichang Space Center, China (XSC). Debris objects in space refer to the collection of defunct objects orbiting the Earth. Examples of debris include non-operational satellites, rocket bodies, and fragments generated from explosions, collisions, or faulty payload assembly.

Loading next visibility...
Identifier
41119, 2011-077AJ
Orbit
HEO
Country
Flag of CNCN / PRC
Related business
Manufacturer
CALT
Mission
Spacecraft
Bus & Motor
Unknown
Mass
Unknown
Launch date (UTC)
2011-12-19 (14 years ago)
Launch vehicle
Unknown
Launch site
Xichang Space Center, China (XSC)
Object type
Payload
Rocket body
Debris
Shape & HBR
Unknown shape, 0.2 m
Radar Cross Section
Medium (>0.1 m² and <1 m²)

Expand to show TLE details & history
Last TLE update: 1 month ago

TLE from 1 month ago
0 CZ-3B DEB
1 41119U 11077AJ  26075.70267014 -.00000079  00000-0  00000-0 0  9996
2 41119  22.6635  15.8016 7279829 223.9770  47.4239  1.69766515 69434
Epoch: 2026-03-16T16:51Z
TLE epoch observation values (Epoch: 2026-03-16T16:51:50.700Z)
Latitude
0.00022°
Longitude
-51.48235°
Altitude
23,025.14 km
Speed
3.699 km/s
True Right ascension
01h 03m 04s
True Declination
0° 00' 01"
Sunlit
Object was in daylight at epoch
Visualization orbit readout
Latitude
Unknown
Longitude
Unknown
Altitude
Unknown
Speed
Unknown
Apparent Right ascension
Unknown
Apparent Declination
Unknown
Sunlit
N/A
Visualization observer readout
Local Sidereal Time
01:50:29
Azimuth
Unknown
Elevation
Unknown
Doppler factor
Unknown
Orbital elements
Apogee altitude
44,918.933 km
Perigee altitude
1,696.989 km
Semi-major axis
29,686.098 km
Eccentricity
0.72798
Inclination
22.6635°
RAAN
15.8016°
Arg. of periapsis
223.977°
True anomaly
136.11738°
Mean anomaly
47.4239°
Eccentric anomaly
89.12943°
Mean motion
0.42434 °/min
Orbital period
848.38 mins
BSTAR
0
Loading maneuver chart data...
Computing Atmospheric mass density...
Loading historical data...
Loading historical data...
Loading historical data...
Loading historical data...
Loading historical data...
Loading historical data...
Loading historical data...

Documentation

Showing up to 5 results
|